CUBEBUG-2 (LO-74)

Last updated on Sun Jun 21 2026 00:03:20 GMT+0000 (Coordinated Universal Time)

1 39440U 13066AA 26171.34547412 .00004187 00000+0 38759-3 0 9997 2 39440 97.8908 120.3368 0058172 18.8863 341.4496 14.93786433677462
UTC large
Height (km)
Speed (km/s)
/
Latitude / Longitude
Inclination (degrees)
Orbital Period (minutes)
Azimuth
Elevation
Range (km)
Doppler Factor

Next 0 passes for location: London (51.5072 / 0.1276)

No passes found over London.
CUBEBUG-2 (LO-74)